sat.trackr.live / text

‹ back to catalog

STARLINK-34799

NORAD 65472 · 2025-195Q

PAYLOAD ACTIVE UNKNOWN

§ Identity

Operator
Country
US
Launch date
2025-09-03
Launch site
AFETR
Launch vehicle
Mass (kg)
RCS (m²)

Purposes: comms

External: N2YO · Heavens-Above · Gunter

§ Orbital elements

Epoch: 2026-09-19T18:41:09.801888Z

Period
93.85 min
Inclination
53.1585°
Eccentricity
0.0001711
Mean motion
15.34405706 rev/d
Perigee alt
461.5 km
Apogee alt
463.9 km
Semi-major
6,840.8 km
B*
5.9617e-4
RAAN
72.8265°
Arg perigee
87.3361°
Mean anomaly
272.7838°
Rev number
5,974

§ Raw data

STARLINK-347991 65472U 25195Q   26262.77858567  .00019823  00000+0  59617-3 0  99902 65472  53.1585  72.8265 0001711  87.3361 272.7838 15.34405706 59748

JSON: /api/v1/satellites/65472 · /tle

For live sub-satellite position, see the globe view (requires WebGL).

§ Visibility from observer

Set your observer location to see the next 7 days of passes ≥ 10°. The values pass through the URL so the page stays shareable.

No JS? Fill the form by hand. The geolocation button needs JavaScript.